This is the latest recevied weather packets stored in our database for station/object HB9TVK-13. If no packets are shown the sender has not sent any weather packets the latest 10 day(s).
| Time | Temp. | Humidity | Pressure | Rain* | Wind** | Luminosity | Snow |
|---|---|---|---|---|---|---|---|
| 1777304237 | 21.11° C | 34% | 1018.7 hPa | 0 mm | - | - | - |
| 1777303638 | 21.67° C | 33% | 1018.7 hPa | 0 mm | - | - | - |
| 1777303038 | 21.11° C | 34% | 1018.7 hPa | 0 mm | - | - | - |
| 1777302436 | 21.11° C | 33% | 1018.9 hPa | 0 mm | - | - | - |
| 1777301836 | 21.11° C | 33% | 1018.9 hPa | 0 mm | - | - | - |
| 1777301236 | 21.11° C | 32% | 1019 hPa | 0 mm | - | - | - |
| 1777300636 | 21.11° C | 33% | 1019.1 hPa | 0 mm | - | - | - |
| 1777300037 | 21.67° C | 33% | 1019.2 hPa | 0 mm | - | - | - |
| 1777299438 | 22.22° C | 33% | 1019.2 hPa | 0 mm | - | - | - |
| 1777298838 | 21.67° C | 33% | 1019.2 hPa | 0 mm | - | - | - |
| 1777298236 | 21.11° C | 31% | 1019.3 hPa | 0 mm | - | - | - |
| 1777297636 | 21.11° C | 31% | 1019.5 hPa | 0 mm | - | - | - |
| 1777297036 | 21.11° C | 34% | 1019.6 hPa | 0 mm | - | - | - |
| 1777296436 | 21.11° C | 34% | 1019.7 hPa | 0 mm | - | - | - |
| 1777295837 | 21.11° C | 36% | 1019.8 hPa | 0 mm | - | - | - |
| 1777295237 | 21.11° C | 37% | 1019.9 hPa | 0 mm | - | - | - |
| 1777294638 | 20.56° C | 38% | 1020 hPa | 0 mm | - | - | - |
| 1777294036 | 20.56° C | 38% | 1020 hPa | 0 mm | - | - | - |
| 1777293436 | 20.56° C | 40% | 1020.1 hPa | 0 mm | - | - | - |
| 1777292836 | 20° C | 40% | 1020.2 hPa | 0 mm | - | - | - |
| 1777292237 | 19.44° C | 38% | 1020.3 hPa | 0 mm | - | - | - |
| 1777291637 | 19.44° C | 40% | 1020.4 hPa | 0 mm | - | - | - |
| 1777291038 | 19.44° C | 42% | 1020.4 hPa | 0 mm | - | - | - |
| 1777290435 | 18.89° C | 43% | 1020.5 hPa | 0 mm | - | - | - |
| 1777289835 | 18.89° C | 43% | 1020.6 hPa | 0 mm | - | - | - |
* Rain latest hour (hover to see other rain measurements)
** Current wind speed in m/s (hover to see current wind gust speed)